Time,TemperatureF,DewpointF,PressureIn,WindDirection,WindDirectionDegrees,WindSpeedMPH,WindSpeedGustMPH,Humidity,HourlyPrecipIn,Conditions,Clouds,dailyrainin,SoftwareType,DateUTC
2013-09-09 00:15:00,77.9,54.0,29.60,East,96,13.0,13.0,43,0.00,,,0.00,weatherlink.com 1.10,2013-09-09 06:15:00,
2013-09-09 00:30:00,77.6,53.0,29.60,SSE,149,6.0,16.0,42,0.00,,,0.00,weatherlink.com 1.10,2013-09-09 06:30:00,
2013-09-09 00:45:00,77.2,53.0,29.60,East,84,9.0,15.0,43,0.00,,,0.00,weatherlink.com 1.10,2013-09-09 06:45:00,
2013-09-09 01:00:00,76.8,53.0,29.60,SE,134,11.0,23.0,43,0.00,,,0.00,weatherlink.com 1.10,2013-09-09 07:00:00,
2013-09-09 01:15:00,76.5,52.0,29.60,ESE,107,13.0,23.0,43,0.00,,,0.00,weatherlink.com 1.10,2013-09-09 07:15:00,
2013-09-09 01:30:00,76.1,53.0,29.60,ESE,110,15.0,19.0,44,0.00,,,0.00,weatherlink.com 1.10,2013-09-09 07:30:00,
2013-09-09 01:45:00,75.9,53.0,29.60,East,89,16.0,22.0,45,0.00,,,0.00,weatherlink.com 1.10,2013-09-09 07:45:00,
2013-09-09 02:00:00,75.5,53.0,29.59,East,96,15.0,20.0,46,0.00,,,0.00,weatherlink.com 1.10,2013-09-09 08:00:00,
2013-09-09 02:15:00,75.2,53.0,29.59,ESE,105,14.0,22.0,46,0.00,,,0.00,weatherlink.com 1.10,2013-09-09 08:15:00,
2013-09-09 02:30:00,74.9,53.0,29.59,SE,132,7.0,20.0,46,0.00,,,0.00,weatherlink.com 1.10,2013-09-09 08:30:00,
2013-09-09 02:45:00,74.8,53.0,29.59,East,89,11.0,26.0,46,0.00,,,0.00,weatherlink.com 1.10,2013-09-09 08:45:00,
2013-09-09 03:00:00,74.5,53.0,29.59,SE,138,8.0,21.0,47,0.00,,,0.00,weatherlink.com 1.10,2013-09-09 09:00:00,
2013-09-09 03:15:00,74.2,53.0,29.59,ENE,73,14.0,23.0,48,0.00,,,0.00,weatherlink.com 1.10,2013-09-09 09:15:00,
2013-09-09 03:30:00,74.0,53.0,29.59,ESE,108,13.0,18.0,48,0.00,,,0.00,weatherlink.com 1.10,2013-09-09 09:30:00,
2013-09-09 03:45:00,73.9,53.0,29.59,ESE,114,13.0,-999.0,49,-99.99,,,0.00,weatherlink.com 1.10,2013-09-09 09:45:00,
2013-09-09 04:00:00,73.5,53.0,29.59,ENE,71,13.0,27.0,49,0.00,,,0.00,weatherlink.com 1.10,2013-09-09 10:00:00,
2013-09-09 04:15:00,73.2,53.0,29.58,SE,127,13.0,21.0,50,0.00,,,0.00,weatherlink.com 1.10,2013-09-09 10:15:00,
2013-09-09 04:30:00,72.8,53.0,29.58,ENE,72,16.0,19.0,50,0.00,,,0.00,weatherlink.com 1.10,2013-09-09 10:30:00,
2013-09-09 04:45:00,72.7,54.0,29.58,ESE,117,11.0,20.0,52,0.00,,,0.00,weatherlink.com 1.10,2013-09-09 10:45:00,
2013-09-09 05:00:00,72.8,55.0,29.58,ENE,77,19.0,23.0,53,0.00,,,0.00,weatherlink.com 1.10,2013-09-09 11:00:00,
2013-09-09 05:15:00,72.6,55.0,29.58,East,101,9.0,25.0,54,0.00,,,0.00,weatherlink.com 1.10,2013-09-09 11:15:00,
2013-09-09 05:30:00,72.2,55.0,29.59,ENE,73,14.0,21.0,55,0.00,,,0.00,weatherlink.com 1.10,2013-09-09 11:30:00,
2013-09-09 05:45:00,72.1,55.0,29.59,ENE,78,19.0,22.0,56,0.00,,,0.00,weatherlink.com 1.10,2013-09-09 11:45:00,
2013-09-09 06:00:00,71.9,56.0,29.59,SE,124,13.0,23.0,57,0.00,,,0.00,weatherlink.com 1.10,2013-09-09 12:00:00,
2013-09-09 06:15:00,71.6,56.0,29.59,ENE,62,16.0,22.0,58,0.00,,,0.00,weatherlink.com 1.10,2013-09-09 12:15:00,
2013-09-09 06:30:00,71.4,56.0,29.59,East,101,13.0,20.0,59,0.00,,,0.00,weatherlink.com 1.10,2013-09-09 12:30:00,
2013-09-09 06:45:00,71.2,56.0,29.60,ENE,73,13.0,22.0,60,0.00,,,0.00,weatherlink.com 1.10,2013-09-09 12:45:00,
2013-09-09 07:00:00,71.2,56.0,29.60,East,86,14.0,23.0,60,0.00,,,0.00,weatherlink.com 1.10,2013-09-09 13:00:00,
2013-09-09 07:16:00,71.0,56.0,29.60,ESE,105,16.0,23.0,60,0.00,,,0.00,weatherlink.com 1.10,2013-09-09 13:16:00,
2013-09-09 07:31:00,71.2,57.0,29.61,East,86,19.0,22.0,61,0.00,,,0.00,weatherlink.com 1.10,2013-09-09 13:31:00,
2013-09-09 07:46:00,71.1,57.0,29.61,ENE,70,20.0,21.0,61,0.00,,,0.00,weatherlink.com 1.10,2013-09-09 13:46:00,
2013-09-09 08:01:00,71.4,57.0,29.61,East,85,17.0,24.0,61,0.00,,,0.00,weatherlink.com 1.10,2013-09-09 14:01:00,
2013-09-09 08:16:00,72.2,57.0,29.62,ESE,109,14.0,23.0,60,0.00,,,0.00,weatherlink.com 1.10,2013-09-09 14:16:00,
2013-09-09 08:31:00,72.5,57.0,29.62,East,94,21.0,22.0,59,0.00,,,0.00,weatherlink.com 1.10,2013-09-09 14:31:00,
2013-09-09 08:46:00,72.7,57.0,29.62,East,94,17.0,24.0,59,0.00,,,0.00,weatherlink.com 1.10,2013-09-09 14:46:00,
2013-09-09 09:01:00,73.3,57.0,29.62,ESE,111,20.0,21.0,58,0.00,,,0.00,weatherlink.com 1.10,2013-09-09 15:01:00,
2013-09-09 09:16:00,73.9,58.0,29.62,East,99,14.0,22.0,57,0.00,,,0.00,weatherlink.com 1.10,2013-09-09 15:16:00,
2013-09-09 09:31:00,74.2,58.0,29.63,East,86,20.0,25.0,57,0.00,,,0.00,weatherlink.com 1.10,2013-09-09 15:31:00,
2013-09-09 09:46:00,74.7,58.0,29.63,SE,131,10.0,25.0,56,0.00,,,0.00,weatherlink.com 1.10,2013-09-09 15:46:00,
2013-09-09 10:01:00,75.3,58.0,29.64,SE,129,14.0,22.0,56,0.00,,,0.00,weatherlink.com 1.10,2013-09-09 16:01:00,
2013-09-09 10:16:00,75.9,58.0,29.64,East,96,17.0,22.0,55,0.00,,,0.00,weatherlink.com 1.10,2013-09-09 16:16:00,
2013-09-09 10:31:00,76.6,59.0,29.63,East,79,10.0,21.0,54,0.00,,,0.00,weatherlink.com 1.10,2013-09-09 16:31:00,
2013-09-09 10:46:00,77.5,58.0,29.63,East,101,15.0,21.0,51,0.00,,,0.00,weatherlink.com 1.10,2013-09-09 16:46:00,
2013-09-09 11:01:00,78.0,58.0,29.63,ESE,118,6.0,18.0,51,0.00,,,0.00,weatherlink.com 1.10,2013-09-09 17:01:00,
2013-09-09 11:16:00,78.8,58.0,29.63,East,84,11.0,20.0,49,0.00,,,0.00,weatherlink.com 1.10,2013-09-09 17:16:00,
2013-09-09 11:31:00,80.2,58.0,29.62,ESE,120,7.0,17.0,47,0.00,,,0.00,weatherlink.com 1.10,2013-09-09 17:31:00,
2013-09-09 11:46:00,80.3,58.0,29.62,SSE,150,5.0,21.0,47,0.00,,,0.00,weatherlink.com 1.10,2013-09-09 17:46:00,
2013-09-09 12:01:00,81.0,58.0,29.62,SE,131,5.0,16.0,45,0.00,,,0.00,weatherlink.com 1.10,2013-09-09 18:01:00,
2013-09-09 12:16:00,82.3,57.0,29.61,ENE,75,15.0,15.0,42,0.00,,,0.00,weatherlink.com 1.10,2013-09-09 18:16:00,
2013-09-09 12:31:00,83.0,58.0,29.61,NNE,22,7.0,11.0,42,0.00,,,0.00,weatherlink.com 1.10,2013-09-09 18:31:00,
2013-09-09 12:46:00,83.5,59.0,29.60,SSW,203,9.0,15.0,43,0.00,,,0.00,weatherlink.com 1.10,2013-09-09 18:46:00,
2013-09-09 13:01:00,85.3,58.0,29.59,ESE,121,7.0,13.0,39,0.00,,,0.00,weatherlink.com 1.10,2013-09-09 19:01:00,
2013-09-09 13:16:00,85.8,57.0,29.58,East,96,4.0,9.0,38,0.00,,,0.00,weatherlink.com 1.10,2013-09-09 19:16:00,
2013-09-09 13:32:00,86.7,57.0,29.57,SSE,165,6.0,11.0,37,0.00,,,0.00,weatherlink.com 1.10,2013-09-09 19:32:00,
2013-09-09 13:46:00,85.5,57.0,29.56,NE,46,2.0,13.0,38,0.00,,,0.00,weatherlink.com 1.10,2013-09-09 19:46:00,
2013-09-09 14:01:00,86.3,56.0,29.56,SSE,152,3.0,17.0,35,0.00,,,0.00,weatherlink.com 1.10,2013-09-09 20:01:00,
2013-09-09 14:16:00,88.0,57.0,29.55,SSE,153,3.0,15.0,35,0.00,,,0.00,weatherlink.com 1.10,2013-09-09 20:16:00,
2013-09-09 14:31:00,84.1,59.0,29.56,SSE,158,10.0,19.0,42,0.00,,,0.00,weatherlink.com 1.10,2013-09-09 20:31:00,
2013-09-09 14:46:00,80.5,55.0,29.55,SSE,149,12.0,21.0,42,0.00,,,0.00,weatherlink.com 1.10,2013-09-09 20:46:00,
2013-09-09 15:01:00,80.6,53.0,29.55,SE,142,17.0,19.0,39,0.00,,,0.00,weatherlink.com 1.10,2013-09-09 21:01:00,
2013-09-09 15:16:00,79.8,53.0,29.54,SSE,153,9.0,18.0,39,0.00,,,0.00,weatherlink.com 1.10,2013-09-09 21:16:00,
2013-09-09 15:31:00,80.1,53.0,29.54,SSE,153,7.0,15.0,39,0.00,,,0.00,weatherlink.com 1.10,2013-09-09 21:31:00,
2013-09-09 15:46:00,80.0,54.0,29.55,ESE,120,12.0,14.0,41,0.00,,,0.00,weatherlink.com 1.10,2013-09-09 21:46:00,
2013-09-09 16:01:00,80.8,54.0,29.55,SSE,150,12.0,16.0,39,0.00,,,0.00,weatherlink.com 1.10,2013-09-09 22:01:00,
2013-09-09 16:16:00,79.6,52.0,29.55,SE,136,9.0,15.0,39,0.00,,,0.00,weatherlink.com 1.10,2013-09-09 22:16:00,
2013-09-09 16:31:00,79.6,52.0,29.55,SSE,160,14.0,17.0,38,0.00,,,0.00,weatherlink.com 1.10,2013-09-09 22:31:00,
2013-09-09 16:46:00,78.4,56.0,29.55,ESE,107,11.0,15.0,46,0.00,,,0.00,weatherlink.com 1.10,2013-09-09 22:46:00,
2013-09-09 17:01:00,78.3,59.0,29.55,SE,139,11.0,17.0,51,0.00,,,0.00,weatherlink.com 1.10,2013-09-09 23:01:00,
2013-09-09 17:16:00,78.6,57.0,29.55,SE,129,9.0,17.0,48,0.00,,,0.00,weatherlink.com 1.10,2013-09-09 23:16:00,
2013-09-09 17:31:00,77.0,58.0,29.55,SE,145,14.0,21.0,52,0.00,,,0.00,weatherlink.com 1.10,2013-09-09 23:31:00,
2013-09-09 17:46:00,75.9,59.0,29.56,SE,128,7.0,20.0,56,0.00,,,0.00,weatherlink.com 1.10,2013-09-09 23:46:00,
2013-09-09 18:01:00,76.0,59.0,29.56,ESE,105,11.0,23.0,55,0.00,,,0.00,weatherlink.com 1.10,2013-09-10 00:01:00,
2013-09-09 18:17:00,75.9,60.0,29.55,SE,127,12.0,20.0,59,0.00,,,0.00,weatherlink.com 1.10,2013-09-10 00:17:00,
2013-09-09 18:31:00,75.8,60.0,29.55,SSE,152,8.0,19.0,58,0.00,,,0.00,weatherlink.com 1.10,2013-09-10 00:31:00,
2013-09-09 18:47:00,75.3,60.0,29.55,ESE,108,14.0,17.0,59,0.00,,,0.00,weatherlink.com 1.10,2013-09-10 00:47:00,
2013-09-09 19:17:00,74.5,60.0,29.57,ESE,112,6.0,20.0,61,0.00,,,0.00,weatherlink.com 1.10,2013-09-10 01:17:00,
2013-09-09 19:32:00,73.8,61.0,29.57,East,96,19.0,24.0,64,0.00,,,0.00,weatherlink.com 1.10,2013-09-10 01:32:00,
2013-09-09 19:47:00,73.7,60.0,29.58,East,82,19.0,24.0,62,0.00,,,0.00,weatherlink.com 1.10,2013-09-10 01:47:00,
2013-09-09 20:02:00,73.9,58.0,29.58,SE,127,13.0,24.0,58,0.00,,,0.00,weatherlink.com 1.10,2013-09-10 02:02:00,
2013-09-09 20:17:00,74.4,57.0,29.59,ESE,110,17.0,23.0,55,0.00,,,0.00,weatherlink.com 1.10,2013-09-10 02:17:00,
2013-09-09 20:32:00,74.3,57.0,29.60,ESE,103,19.0,19.0,55,0.00,,,0.00,weatherlink.com 1.10,2013-09-10 02:32:00,
2013-09-09 20:47:00,74.2,57.0,29.61,ESE,102,13.0,21.0,55,0.00,,,0.00,weatherlink.com 1.10,2013-09-10 02:47:00,
2013-09-09 21:02:00,74.4,56.0,29.62,ESE,110,17.0,24.0,52,0.00,,,0.00,weatherlink.com 1.10,2013-09-10 03:02:00,
2013-09-09 21:17:00,74.6,56.0,29.62,ESE,103,17.0,30.0,52,0.00,,,0.00,weatherlink.com 1.10,2013-09-10 03:17:00,
2013-09-09 21:32:00,74.5,56.0,29.62,ESE,107,28.0,28.0,53,0.00,,,0.00,weatherlink.com 1.10,2013-09-10 03:32:00,
2013-09-09 21:47:00,74.5,57.0,29.63,ESE,107,20.0,28.0,54,0.00,,,0.00,weatherlink.com 1.10,2013-09-10 03:47:00,
2013-09-09 22:02:00,74.1,57.0,29.64,ESE,113,13.0,29.0,56,0.00,,,0.00,weatherlink.com 1.10,2013-09-10 04:02:00,
2013-09-09 22:17:00,73.9,58.0,29.64,SE,142,14.0,21.0,58,0.00,,,0.00,weatherlink.com 1.10,2013-09-10 04:17:00,
2013-09-09 22:32:00,73.6,59.0,29.64,ESE,108,25.0,25.0,61,0.00,,,0.00,weatherlink.com 1.10,2013-09-10 04:32:00,
2013-09-09 22:47:00,73.4,59.0,29.64,East,100,18.0,25.0,62,0.00,,,0.00,weatherlink.com 1.10,2013-09-10 04:47:00,
2013-09-09 23:03:00,73.3,59.0,29.64,ESE,107,15.0,22.0,62,0.00,,,0.00,weatherlink.com 1.10,2013-09-10 05:03:00,
2013-09-09 23:17:00,73.0,60.0,29.64,East,97,13.0,25.0,63,0.00,,,0.00,weatherlink.com 1.10,2013-09-10 05:17:00,
2013-09-09 23:32:00,72.9,60.0,29.64,East,83,15.0,21.0,64,0.00,,,0.00,weatherlink.com 1.10,2013-09-10 05:32:00,
2013-09-09 23:47:00,72.8,60.0,29.65,East,98,11.0,23.0,65,0.00,,,0.00,weatherlink.com 1.10,2013-09-10 05:47:00,